This demonstration page uses our WeatherBlox Daily Observations layout. Learn more.

Left ArrowRight Arrow

34.16533, -84.80231

Hourly Observations for April 26, 2016

Temp ( °F °C ) Dew Point ( °F °C ) Humidity (%) Winds ( mph kmh ) Pressure ( in mb ) Visibility ( mi km ) Precip ( " mm )
12:53 am 00:53 Clear 60 15.6 58 14.4 93 93 Calm 29.94 1014 10 16 0.00 0.00
1:53 am 01:53 Clear 60 15.6 58 14.4 93 93 Calm 29.93 1013 10 16 0.00 0.00
2:53 am 02:53 Clear 64 17.8 59 15 84 84 S 5 7 29.91 1013 10 16 0.00 0.00
3:53 am 03:53 Mostly Clear 59 15 57 13.9 93 93 N 3 6 29.91 1013 10 16 0.00 0.00
4:53 am 04:53 Partly Cloudy 57 13.9 56 13.3 96 96 Calm 29.92 1013 10 16 0.00 0.00
5:53 am 05:53 Mostly Cloudy 59 15 57 13.9 93 93 Calm 29.92 1013 10 16 0.00 0.00
6:53 am 06:53 Clear 56 13.3 56 13.3 100 100 Calm 29.94 1014 8 13 0.00 0.00
7:53 am 07:53 Mostly Sunny 59 15 58 14.4 96 96 Calm 29.96 1015 9 14 0.00 0.00
8:53 am 08:53 Sunny 66 18.9 61 16.1 84 84 Calm 29.98 1015 10 16 0.00 0.00
9:53 am 09:53 Mostly Sunny 70 21.1 61 16.1 73 73 Calm 29.98 1015 10 16 0.00 0.00
10:53 am 10:53 Mostly Sunny 75 23.9 61 16.1 62 62 NNE 5 7 29.98 1015 10 16 0.00 0.00
11:53 am 11:53 Sunny 76 24.4 62 16.7 62 62 Calm 29.96 1015 10 16 0.00 0.00
12:53 pm 12:53 Sunny 80 26.7 62 16.7 54 54 N 6 9 29.95 1014 10 16 0.00 0.00
1:53 pm 13:53 Mostly Sunny 79 26.1 59 15 50 50 VRB 3 6 29.91 1013 10 16 0.00 0.00
2:53 pm 14:53 Mostly Cloudy 78 25.6 60 15.6 54 54 VRB 3 6 29.89 1012 10 16 0.00 0.00
3:53 pm 15:53 Partly Cloudy 82 27.8 58 14.4 44 44 VRB 5 7 29.86 1011 10 16 0.00 0.00
4:53 pm 16:53 Partly Cloudy 80 26.7 58 14.4 47 47 S 5 7 29.86 1011 10 16 0.00 0.00
5:53 pm 17:53 Mostly Sunny 82 27.8 58 14.4 44 44 S 6 9 29.85 1011 10 16 0.00 0.00
6:53 pm 18:53 Sunny 80 26.7 57 13.9 45 45 S 5 7 29.85 1011 10 16 0.00 0.00
7:53 pm 19:53 Sunny 77 25 58 14.4 52 52 Calm 29.84 1011 10 16 0.00 0.00
8:53 pm 20:53 Clear 68 20 60 15.6 76 76 S 5 7 29.83 1010 10 16 0.00 0.00
9:53 pm 21:53 Clear 67 19.4 59 15 76 76 S 6 9 29.83 1010 10 16 0.00 0.00
10:53 pm 22:53 Clear 69 20.6 59 15 70 70 S 6 9 29.83 1010 10 16 0.00 0.00
11:53 pm 23:53 Clear 66 18.9 59 15 78 78 Calm 29.84 1010 10 16 0.00 0.00

Powered by AerisWeather